Location: Wooded Hills
(32.5240°N, 97.2692°W)
Time: 16:24:20
(UTC+00:00)

X-37B - Visible Passes

Search period start: 05 October 2022 00:00
Search period end: 15 October 2022 00:00
Orbit: 329 x 342 km, 45.0° (Epoch: 29 September)

Date Brightness Start Highest point End Pass type
(mag) Time Alt. Az. Time Alt. Az. Time Alt. Az.
05 Oct 2.5 10:54:23 19° N 10:54:58 20° NNE 10:57:13 10° ENE visible
06 Oct 1.0 11:14:24 29° NNW 11:15:34 52° NNE 11:18:23 10° ESE visible
07 Oct 0.9 11:34:33 22° W 11:35:58 40° SW 11:38:41 10° SSE visible
08 Oct 3.7 10:23:33 12° ESE 10:23:33 12° ESE 10:23:49 10° ESE visible
08 Oct 2.6 11:55:01 10° WSW 11:56:11 12° SW 11:57:22 10° SSW visible
09 Oct 3.4 10:43:57 11° SSE 10:43:57 11° SSE 10:44:07 10° SSE visible
13 Oct 2.0 00:50:21 10° S 00:52:24 18° SE 00:52:50 18° SE visible
14 Oct 0.1 01:09:53 10° SW 01:12:40 69° SE 01:12:57 62° E visible
